This demonstration page uses our WeatherBlox Daily Observations layout. Learn more.

Left ArrowRight Arrow

38.20091, -84.87328

Hourly Observations for June 17, 2021

Temp ( °F °C ) Dew Point ( °F °C ) Humidity (%) Winds ( mph kmh ) Pressure ( in mb ) Visibility ( mi km ) Precip ( " mm )
12:53 am 00:53 Clear 62 16.7 56 13.3 80 80 Calm 30.02 1017 10 16 0.00 0.00
1:53 am 01:53 Clear 60 15.6 56 13.3 86 86 Calm 30.01 1016 10 16 0.00 0.00
2:53 am 02:53 Clear 59 15 55 12.8 87 87 Calm 30.01 1016 10 16 0.00 0.00
3:53 am 03:53 Clear 57 13.9 55 12.8 93 93 Calm 30.01 1016 10 16 0.00 0.00
4:53 am 04:53 Clear 57 13.9 54 12.2 90 90 Calm 30.01 1016 10 16 0.00 0.00
5:53 am 05:53 Clear 56 13.3 54 12.2 93 93 Calm 30.03 1017 10 16 0.00 0.00
6:53 am 06:53 Sunny 58 14.4 55 12.8 90 90 Calm 30.04 1017 10 16 0.00 0.00
7:53 am 07:53 Sunny 65 18.3 58 14.4 78 78 SE 3 6 30.04 1017 10 16 0.00 0.00
8:53 am 08:53 Sunny 71 21.7 56 13.3 59 59 S 6 9 30.05 1018 10 16 0.00 0.00
9:53 am 09:53 Sunny 76 24.4 57 13.9 52 52 SW 5 7 30.06 1018 10 16 0.00 0.00
10:53 am 10:53 Sunny 79 26.1 57 13.9 47 47 SW 9 15 30.05 1018 10 16 0.00 0.00
11:53 am 11:53 Sunny 81 27.2 56 13.3 42 42 VRB 5 7 30.05 1018 10 16 0.00 0.00
12:53 pm 12:53 Mostly Cloudy 81 27.2 56 13.3 42 42 WSW 6 9 30.05 1018 10 16 0.00 0.00
1:53 pm 13:53 Mostly Sunny 83 28.3 54 12.2 37 37 Calm 30.03 1017 10 16 0.00 0.00
2:53 pm 14:53 Sunny 85 29.4 55 12.8 36 36 ESE 7 11 30.01 1016 10 16 0.00 0.00
3:53 pm 15:53 Sunny 85 29.4 56 13.3 37 37 SSW 6 9 29.99 1016 10 16 0.00 0.00
4:53 pm 16:53 Sunny 85 29.4 55 12.8 36 36 S 8 13 29.98 1015 10 16 0.00 0.00
5:53 pm 17:53 Sunny 85 29.4 55 12.8 36 36 SW 7 11 29.98 1015 10 16 0.00 0.00
6:53 pm 18:53 Sunny 84 28.9 54 12.2 36 36 WSW 5 7 29.98 1015 10 16 0.00 0.00
7:53 pm 19:53 Sunny 82 27.8 57 13.9 42 42 SW 6 9 29.98 1015 10 16 0.00 0.00
8:53 pm 20:53 Sunny 75 23.9 62 16.7 64 64 Calm 29.98 1015 10 16 0.00 0.00
9:53 pm 21:53 Clear 70 21.1 61 16.1 73 73 Calm 29.99 1016 10 16 0.00 0.00
10:53 pm 22:53 Clear 69 20.6 60 15.6 73 73 Calm 30.01 1016 10 16 0.00 0.00
11:53 pm 23:53 Clear 67 19.4 60 15.6 79 79 Calm 30.01 1016 10 16 0.00 0.00

Powered by AerisWeather